Private Wetterstation Wechselburg
Wetterdaten: Donnerstag, 28.03.2013
Datum Zeit Temp. +2m Bodentemp. Temp.+5cm Temp. Wind Windchill X Diff Temp. Feuchte +2m Feuchte +5cm Sonnenschein Luftdruck Regen Wind Richtung Richtung Sonnenschein UV Taupunkt Windchill Windben
28.03.2013 00:00 -2,6 C 7,4 C -2,5 C -3,5 C -5,4 C 0,0 C 86 % 87 % 0 % 1015,1 hPa 0,0 l/m 6,4 km/h (2 Bft) O 90 0 min 0,0 UV-I -4,6 C -8,4 C 4,7 km/h (1 Bft)
28.03.2013 00:05 -2,5 C 7,4 C -2,5 C -3,4 C -5,3 C 0,0 C 86 % 87 % 0 % 1015,1 hPa 0,0 l/m 6,3 km/h (2 Bft) O 90 0 min 0,0 UV-I -4,5 C -8,3 C 8,4 km/h (2 Bft)
28.03.2013 00:10 -2,5 C 7,4 C -2,5 C -3,4 C -5,1 C 0,0 C 86 % 87 % 0 % 1015,1 hPa 0,0 l/m 5,6 km/h (1 Bft) O-NO 67 0 min 0,0 UV-I -4,5 C -7,7 C 5,6 km/h (1 Bft)
28.03.2013 00:15 -2,5 C 7,4 C -2,5 C -3,4 C -5,3 C 0,0 C 86 % 87 % 0 % 1014,7 hPa 0,0 l/m 6,1 km/h (2 Bft) NO 45 0 min 0,0 UV-I -4,5 C -8,2 C 10,1 km/h (2 Bft)
28.03.2013 00:20 -2,6 C 7,4 C -2,5 C -3,5 C -5,3 C 0,0 C 86 % 87 % 0 % 1014,7 hPa 0,0 l/m 6,1 km/h (2 Bft) O-NO 67 0 min 0,0 UV-I -4,6 C -8,2 C 4,2 km/h (1 Bft)
28.03.2013 00:25 -2,5 C 7,4 C -2,5 C -3,4 C -5,1 C 0,0 C 86 % 87 % 0 % 1014,7 hPa 0,0 l/m 5,6 km/h (1 Bft) O 90 0 min 0,0 UV-I -4,5 C -7,7 C 7,1 km/h (2 Bft)
28.03.2013 00:30 -2,5 C 7,4 C -2,5 C -3,2 C -4,7 C 0,0 C 86 % 87 % 0 % 1014,7 hPa 0,0 l/m 4,8 km/h (1 Bft) O-NO 67 0 min 0,0 UV-I -4,5 C -6,8 C 7,6 km/h (2 Bft)
28.03.2013 00:35 -2,6 C 7,4 C -2,5 C -3,3 C -4,7 C 0,0 C 86 % 87 % 0 % 1014,6 hPa 0,0 l/m 4,8 km/h (1 Bft) O-NO 67 0 min 0,0 UV-I -4,6 C -6,8 C 5,8 km/h (2 Bft)
28.03.2013 00:41 -2,5 C 7,4 C -2,5 C -3,3 C -4,8 C 0,0 C 86 % 87 % 0 % 1014,6 hPa 0,0 l/m 5,1 km/h (1 Bft) N 0 0 min 0,0 UV-I -4,5 C -7,1 C 6,0 km/h (2 Bft)
28.03.2013 01:00 -2,5 C 7,4 C -2,5 C -3,2 C -4,5 C 0,0 C 86 % 87 % 0 % 1014,3 hPa 0,0 l/m 4,3 km/h (1 Bft) O-NO 67 0 min 0,0 UV-I -4,5 C -4,5 C 6,8 km/h (2 Bft)
28.03.2013 01:05 -2,5 C 7,4 C -2,5 C -3,2 C -4,7 C 0,0 C 86 % 87 % 0 % 1014,3 hPa 0,0 l/m 4,7 km/h (1 Bft) O-SO 112 0 min 0,0 UV-I -4,5 C -6,8 C 4,5 km/h (1 Bft)
28.03.2013 01:10 -2,5 C 7,4 C -2,5 C -3,3 C -4,8 C 0,0 C 86 % 87 % 0 % 1014,3 hPa 0,0 l/m 5,1 km/h (1 Bft) O-NO 67 0 min 0,0 UV-I -4,5 C -7,1 C 4,5 km/h (1 Bft)
28.03.2013 01:15 -2,5 C 7,4 C -2,5 C -3,2 C -4,5 C 0,0 C 86 % 87 % 0 % 1014,3 hPa 0,0 l/m 4,5 km/h (1 Bft) O-NO 67 0 min 0,0 UV-I -4,5 C -4,5 C 10,6 km/h (2 Bft)
28.03.2013 01:20 -2,5 C 7,4 C -2,5 C -3,2 C -4,7 C 0,0 C 86 % 87 % 0 % 1014,3 hPa 0,0 l/m 4,8 km/h (1 Bft) O-NO 67 0 min 0,0 UV-I -4,5 C -6,8 C 7,1 km/h (2 Bft)
28.03.2013 01:25 -2,5 C 7,4 C -2,5 C -3,4 C -5,1 C 0,0 C 86 % 87 % 0 % 1014,3 hPa 0,0 l/m 5,8 km/h (2 Bft) O-NO 67 0 min 0,0 UV-I -4,5 C -7,8 C 8,5 km/h (2 Bft)
28.03.2013 01:30 -2,5 C 7,4 C -2,5 C -3,4 C -5,1 C 0,0 C 86 % 87 % 0 % 1014,3 hPa 0,0 l/m 5,8 km/h (2 Bft) O-NO 67 0 min 0,0 UV-I -4,5 C -7,8 C 4,5 km/h (1 Bft)
28.03.2013 01:35 -2,5 C 7,4 C -2,5 C -3,3 C -5,0 C 0,0 C 86 % 87 % 0 % 1014,1 hPa 0,0 l/m 5,5 km/h (1 Bft) O 90 0 min 0,0 UV-I -4,5 C -7,5 C 5,5 km/h (1 Bft)
28.03.2013 01:40 -2,5 C 7,4 C -2,5 C -3,2 C -4,7 C 0,0 C 86 % 87 % 0 % 1014,1 hPa 0,0 l/m 5,0 km/h (1 Bft) O-NO 67 0 min 0,0 UV-I -4,5 C -6,9 C 8,9 km/h (2 Bft)
28.03.2013 01:45 -2,6 C 7,4 C -2,5 C -3,5 C -5,2 C 0,0 C 85 % 87 % 0 % 1014,1 hPa 0,0 l/m 6,0 km/h (2 Bft) O-NO 67 0 min 0,0 UV-I -4,8 C -8,0 C 12,4 km/h (3 Bft)
28.03.2013 01:50 -2,6 C 7,4 C -2,6 C -3,6 C -5,6 C 0,0 C 85 % 87 % 0 % 1014,1 hPa 0,0 l/m 6,9 km/h (2 Bft) O 90 0 min 0,0 UV-I -4,8 C -8,9 C 10,3 km/h (2 Bft)
28.03.2013 01:55 -2,5 C 7,4 C -2,6 C -3,5 C -5,4 C 0,0 C 85 % 87 % 0 % 1013,8 hPa 0,0 l/m 6,4 km/h (2 Bft) O-NO 67 0 min 0,0 UV-I -4,7 C -8,4 C 4,3 km/h (1 Bft)
28.03.2013 02:00 -2,6 C 7,4 C -2,5 C -3,5 C -5,3 C 0,0 C 85 % 87 % 0 % 1013,8 hPa 0,0 l/m 5,8 km/h (2 Bft) NO 45 0 min 0,0 UV-I -4,8 C -8,0 C 5,0 km/h (1 Bft)
28.03.2013 02:05 -2,6 C 7,4 C -2,5 C -3,4 C -4,9 C 0,0 C 85 % 87 % 0 % 1013,8 hPa 0,0 l/m 5,1 km/h (1 Bft) O 90 0 min 0,0 UV-I -4,8 C -7,2 C 11,9 km/h (2 Bft)
28.03.2013 02:10 -2,5 C 7,4 C -2,5 C -3,4 C -5,1 C 0,0 C 85 % 87 % 0 % 1013,8 hPa 0,0 l/m 5,5 km/h (1 Bft) O-NO 67 0 min 0,0 UV-I -4,7 C -7,6 C 5,1 km/h (1 Bft)
28.03.2013 02:15 -2,5 C 7,4 C -2,5 C -3,6 C -5,7 C 0,0 C 85 % 87 % 0 % 1014,2 hPa 0,0 l/m 7,1 km/h (2 Bft) O-NO 67 0 min 0,0 UV-I -4,7 C -9,1 C 14,5 km/h (3 Bft)
28.03.2013 02:20 -2,5 C 7,4 C -2,5 C -3,5 C -5,5 C 0,0 C 85 % 87 % 0 % 1014,2 hPa 0,0 l/m 6,6 km/h (2 Bft) NO 45 0 min 0,0 UV-I -4,7 C -8,6 C 5,5 km/h (1 Bft)
28.03.2013 02:25 -2,5 C 7,4 C -2,5 C -3,3 C -5,0 C 0,0 C 85 % 87 % 0 % 1014,2 hPa 0,0 l/m 5,5 km/h (1 Bft) O-NO 67 0 min 0,0 UV-I -4,7 C -7,5 C 5,8 km/h (2 Bft)
28.03.2013 02:30 -2,5 C 7,4 C -2,5 C -3,3 C -4,8 C 0,0 C 85 % 87 % 0 % 1014,2 hPa 0,0 l/m 5,1 km/h (1 Bft) O-NO 67 0 min 0,0 UV-I -4,7 C -7,1 C 5,0 km/h (1 Bft)
28.03.2013 02:35 -2,5 C 7,4 C -2,5 C -3,2 C -4,6 C 0,0 C 85 % 87 % 0 % 1013,8 hPa 0,0 l/m 4,7 km/h (1 Bft) NO 45 0 min 0,0 UV-I -4,7 C -6,6 C 4,3 km/h (1 Bft)
28.03.2013 02:40 -2,5 C 7,4 C -2,5 C -3,1 C -4,2 C 0,0 C 85 % 87 % 0 % 1013,8 hPa 0,0 l/m 4,0 km/h (1 Bft) NO 45 0 min 0,0 UV-I -4,7 C -4,2 C 2,6 km/h (1 Bft)
28.03.2013 02:45 -2,5 C 7,4 C -2,5 C -3,0 C -4,1 C 0,0 C 85 % 87 % 0 % 1013,8 hPa 0,0 l/m 3,9 km/h (1 Bft) O-NO 67 0 min 0,0 UV-I -4,7 C -4,1 C 7,6 km/h (2 Bft)
28.03.2013 02:50 -2,5 C 7,4 C -2,5 C -3,0 C -3,9 C 0,0 C 85 % 87 % 0 % 1013,8 hPa 0,0 l/m 3,7 km/h (1 Bft) O-NO 67 0 min 0,0 UV-I -4,7 C -3,9 C 2,4 km/h (1 Bft)
28.03.2013 02:55 -2,5 C 7,4 C -2,5 C -3,0 C -3,9 C 0,0 C 85 % 87 % 0 % 1013,6 hPa 0,0 l/m 3,7 km/h (1 Bft) O 90 0 min 0,0 UV-I -4,7 C -3,9 C 4,7 km/h (1 Bft)
28.03.2013 03:00 -2,5 C 7,4 C -2,5 C -3,0 C -3,9 C 0,0 C 85 % 87 % 0 % 1013,6 hPa 0,0 l/m 3,5 km/h (1 Bft) O-NO 67 0 min 0,0 UV-I -4,7 C -3,9 C 2,6 km/h (1 Bft)
28.03.2013 03:05 -2,5 C 7,4 C -2,5 C -2,9 C -3,8 C 0,0 C 85 % 87 % 0 % 1013,6 hPa 0,0 l/m 3,4 km/h (1 Bft) O-NO 67 0 min 0,0 UV-I -4,7 C -3,8 C 3,1 km/h (1 Bft)
28.03.2013 03:10 -2,5 C 7,4 C -2,5 C -2,9 C -3,7 C 0,0 C 85 % 87 % 0 % 1013,6 hPa 0,0 l/m 3,2 km/h (1 Bft) O-NO 67 0 min 0,0 UV-I -4,7 C -3,7 C 3,1 km/h (1 Bft)
28.03.2013 03:15 -2,5 C 7,4 C -2,5 C -2,9 C -3,7 C 0,0 C 85 % 87 % 0 % 1013,2 hPa 0,0 l/m 3,2 km/h (1 Bft) O-NO 67 0 min 0,0 UV-I -4,7 C -3,7 C 3,4 km/h (1 Bft)
28.03.2013 03:20 -2,5 C 7,4 C -2,5 C -2,9 C -3,6 C 0,0 C 85 % 87 % 0 % 1013,2 hPa 0,0 l/m 3,1 km/h (1 Bft) O 90 0 min 0,0 UV-I -4,7 C -3,6 C 6,1 km/h (2 Bft)
28.03.2013 03:25 -2,5 C 7,4 C -2,5 C -2,9 C -3,6 C 0,0 C 85 % 87 % 0 % 1013,2 hPa 0,0 l/m 3,1 km/h (1 Bft) O-NO 67 0 min 0,0 UV-I -4,7 C -3,6 C 3,4 km/h (1 Bft)
28.03.2013 03:30 -2,5 C 7,4 C -2,5 C -2,8 C -3,4 C 0,0 C 85 % 87 % 0 % 1013,2 hPa 0,0 l/m 2,9 km/h (1 Bft) O-NO 67 0 min 0,0 UV-I -4,7 C -3,4 C 3,2 km/h (1 Bft)
28.03.2013 03:35 -2,5 C 7,4 C -2,5 C -2,8 C -3,3 C 0,0 C 85 % 87 % 0 % 1013,5 hPa 0,0 l/m 2,7 km/h (1 Bft) O-SO 112 0 min 0,0 UV-I -4,7 C -3,3 C 2,4 km/h (1 Bft)
28.03.2013 03:40 -2,5 C 7,3 C -2,5 C -2,7 C -3,0 C 0,0 C 85 % 87 % 0 % 1013,5 hPa 0,0 l/m 2,4 km/h (1 Bft) O-NO 67 0 min 0,0 UV-I -4,7 C -3,0 C 6,6 km/h (2 Bft)
28.03.2013 03:45 -2,5 C 7,3 C -2,5 C -2,7 C -3,2 C 0,0 C 85 % 87 % 0 % 1013,5 hPa 0,0 l/m 2,6 km/h (1 Bft) O-NO 67 0 min 0,0 UV-I -4,7 C -3,2 C 3,7 km/h (1 Bft)
28.03.2013 03:50 -2,5 C 7,3 C -2,5 C -2,7 C -3,2 C 0,0 C 85 % 87 % 0 % 1013,5 hPa 0,0 l/m 2,6 km/h (1 Bft) O-NO 67 0 min 0,0 UV-I -4,7 C -3,2 C 3,1 km/h (1 Bft)
28.03.2013 03:55 -2,5 C 7,3 C -2,5 C -2,6 C -2,9 C 0,0 C 85 % 87 % 0 % 1013,2 hPa 0,0 l/m 2,1 km/h (1 Bft) O 90 0 min 0,0 UV-I -4,7 C -2,9 C 3,7 km/h (1 Bft)
28.03.2013 04:00 -2,5 C 7,3 C -2,5 C -2,7 C -3,2 C 0,0 C 85 % 87 % 0 % 1013,2 hPa 0,0 l/m 2,6 km/h (1 Bft) O-NO 67 0 min 0,0 UV-I -4,7 C -3,2 C 3,5 km/h (1 Bft)
28.03.2013 04:05 -2,5 C 7,3 C -2,5 C -2,9 C -3,8 C 0,0 C 85 % 87 % 0 % 1013,2 hPa 0,0 l/m 3,4 km/h (1 Bft) O-NO 67 0 min 0,0 UV-I -4,7 C -3,8 C 3,9 km/h (1 Bft)
28.03.2013 04:10 -2,5 C 7,3 C -2,5 C -3,0 C -3,9 C 0,0 C 85 % 87 % 0 % 1013,2 hPa 0,0 l/m 3,5 km/h (1 Bft) O 90 0 min 0,0 UV-I -4,7 C -3,9 C 4,8 km/h (1 Bft)
28.03.2013 04:15 -2,5 C 7,4 C -2,5 C -2,8 C -3,4 C 0,0 C 85 % 86 % 0 % 1013,3 hPa 0,0 l/m 2,9 km/h (1 Bft) O-NO 67 0 min 0,0 UV-I -4,7 C -3,4 C 2,6 km/h (1 Bft)
28.03.2013 04:20 -2,5 C 7,3 C -2,5 C -2,7 C -3,2 C 0,0 C 85 % 87 % 0 % 1013,3 hPa 0,0 l/m 2,6 km/h (1 Bft) O-NO 67 0 min 0,0 UV-I -4,7 C -3,2 C 3,4 km/h (1 Bft)
28.03.2013 04:25 -2,5 C 7,3 C -2,5 C -2,8 C -3,3 C 0,0 C 85 % 87 % 0 % 1013,3 hPa 0,0 l/m 2,7 km/h (1 Bft) NO 45 0 min 0,0 UV-I -4,7 C -3,3 C 2,6 km/h (1 Bft)
28.03.2013 04:30 -2,5 C 7,3 C -2,5 C -2,6 C -2,8 C 0,0 C 85 % 87 % 0 % 1013,3 hPa 0,0 l/m 1,6 km/h (1 Bft) O-SO 112 0 min 0,0 UV-I -4,7 C -2,8 C 0,0 km/h (0 Bft)
28.03.2013 04:35 -2,5 C 7,4 C -2,5 C -2,6 C -2,8 C 0,0 C 85 % 87 % 0 % 1013,0 hPa 0,0 l/m 1,3 km/h (1 Bft) NO 45 0 min 0,0 UV-I -4,7 C -2,8 C 3,1 km/h (1 Bft)
28.03.2013 04:40 -2,5 C 7,3 C -2,5 C -2,6 C -2,8 C 0,0 C 85 % 87 % 0 % 1013,0 hPa 0,0 l/m 1,8 km/h (1 Bft) O-SO 112 0 min 0,0 UV-I -4,7 C -2,8 C 1,8 km/h (1 Bft)
28.03.2013 04:45 -2,5 C 7,4 C -2,5 C -2,6 C -2,8 C 0,0 C 85 % 87 % 0 % 1013,0 hPa 0,0 l/m 1,3 km/h (1 Bft) O-NO 67 0 min 0,0 UV-I -4,7 C -2,8 C 0,0 km/h (0 Bft)
28.03.2013 04:50 -2,5 C 7,4 C -2,5 C -2,6 C -2,9 C 0,0 C 85 % 87 % 0 % 1013,0 hPa 0,0 l/m 0,6 km/h (0 Bft) O 90 0 min 0,0 UV-I -4,7 C -2,9 C 3,1 km/h (1 Bft)
28.03.2013 04:55 -2,5 C 7,4 C -2,5 C -2,6 C -2,9 C 0,0 C 85 % 87 % 0 % 1013,1 hPa 0,0 l/m 1,1 km/h (1 Bft) O-NO 67 0 min 0,0 UV-I -4,7 C -2,9 C 2,3 km/h (1 Bft)
28.03.2013 05:00 -2,5 C 7,4 C -2,5 C -2,6 C -2,9 C 0,0 C 85 % 87 % 0 % 1013,1 hPa 0,0 l/m 1,4 km/h (1 Bft) N-NO 22 0 min 0,0 UV-I -4,7 C -2,9 C 1,9 km/h (1 Bft)
28.03.2013 05:05 -2,5 C 7,4 C -2,5 C -2,6 C -2,9 C 0,0 C 85 % 87 % 0 % 1013,1 hPa 0,0 l/m 0,8 km/h (0 Bft) N-NO 22 0 min 0,0 UV-I -4,7 C -2,9 C 0,0 km/h (0 Bft)
28.03.2013 05:10 -2,5 C 7,3 C -2,5 C -2,7 C -3,0 C 0,0 C 85 % 87 % 0 % 1013,1 hPa 0,0 l/m 0,3 km/h (0 Bft) N-NO 22 0 min 0,0 UV-I -4,7 C -3,0 C 0,0 km/h (0 Bft)
28.03.2013 05:15 -2,5 C 7,4 C -2,5 C -2,7 C -3,0 C 0,0 C 85 % 87 % 0 % 1012,9 hPa 0,0 l/m 0,2 km/h (0 Bft) O-NO 67 0 min 0,0 UV-I -4,7 C -3,0 C 0,0 km/h (0 Bft)
28.03.2013 05:20 -2,5 C 7,3 C -2,5 C -2,7 C -3,0 C 0,0 C 85 % 87 % 0 % 1012,9 hPa 0,0 l/m 0,0 km/h (0 Bft) O-NO 67 0 min 0,0 UV-I -4,7 C -3,0 C 0,0 km/h (0 Bft)
28.03.2013 05:25 -2,5 C 7,3 C -2,5 C -2,7 C -3,1 C 0,0 C 85 % 87 % 0 % 1012,9 hPa 0,0 l/m 0,2 km/h (0 Bft) O-NO 67 0 min 0,0 UV-I -4,7 C -3,1 C 0,0 km/h (0 Bft)
28.03.2013 05:30 -2,5 C 7,3 C -2,6 C -2,7 C -3,2 C 0,0 C 85 % 87 % 0 % 1012,9 hPa 0,0 l/m 0,2 km/h (0 Bft) O-NO 67 0 min 0,0 UV-I -4,7 C -3,2 C 0,0 km/h (0 Bft)
28.03.2013 05:35 -2,5 C 7,4 C -2,5 C -2,8 C -3,4 C 0,0 C 85 % 87 % 0 % 1013,1 hPa 0,0 l/m 0,0 km/h (0 Bft) NO 45 0 min 0,0 UV-I -4,7 C -3,4 C 0,0 km/h (0 Bft)
28.03.2013 05:40 -2,7 C 7,4 C -2,8 C -3,0 C -3,6 C 0,0 C 85 % 87 % 0 % 1013,1 hPa 0,0 l/m 0,0 km/h (0 Bft) NO 45 0 min 0,0 UV-I -4,9 C -3,6 C 0,0 km/h (0 Bft)
28.03.2013 05:45 -2,8 C 7,4 C -2,9 C -3,1 C -3,7 C 0,0 C 84 % 87 % 0 % 1013,1 hPa 0,0 l/m 0,0 km/h (0 Bft) O-NO 67 0 min 0,0 UV-I -5,1 C -3,7 C 0,0 km/h (0 Bft)
28.03.2013 05:50 -2,7 C 7,4 C -2,9 C -3,1 C -3,8 C 0,0 C 85 % 87 % 0 % 1013,1 hPa 0,0 l/m 0,0 km/h (0 Bft) NO 45 0 min 0,0 UV-I -4,9 C -3,8 C 0,0 km/h (0 Bft)
28.03.2013 05:55 -2,9 C 7,4 C -3,1 C -3,2 C -3,9 C 0,0 C 84 % 86 % 0 % 1012,9 hPa 0,0 l/m 0,0 km/h (0 Bft) O-NO 67 0 min 0,0 UV-I -5,2 C -3,9 C 0,0 km/h (0 Bft)
28.03.2013 06:00 -3,0 C 7,4 C -3,1 C -3,3 C -4,0 C 0,0 C 84 % 86 % 0 % 1012,9 hPa 0,0 l/m 0,0 km/h (0 Bft) O-NO 67 0 min 0,0 UV-I -5,3 C -4,0 C 0,0 km/h (0 Bft)
28.03.2013 06:05 -2,9 C 7,3 C -3,1 C -3,3 C -4,0 C 0,0 C 84 % 86 % 0 % 1012,9 hPa 0,0 l/m 0,0 km/h (0 Bft) O-NO 67 0 min 0,0 UV-I -5,2 C -4,0 C 0,0 km/h (0 Bft)
28.03.2013 06:10 -3,1 C 7,4 C -3,1 C -3,4 C -3,9 C 0,0 C 84 % 86 % 0 % 1012,9 hPa 0,0 l/m 0,0 km/h (0 Bft) N-NO 22 0 min 0,0 UV-I -5,4 C -3,9 C 0,0 km/h (0 Bft)
28.03.2013 06:15 -3,1 C 7,4 C -3,1 C -3,3 C -3,8 C 0,0 C 85 % 86 % 0 % 1013,0 hPa 0,0 l/m 0,0 km/h (0 Bft) N-NO 22 0 min 0,0 UV-I -5,3 C -3,8 C 0,0 km/h (0 Bft)
28.03.2013 06:20 -3,1 C 7,4 C -2,9 C -3,3 C -3,8 C 0,0 C 85 % 87 % 0 % 1013,0 hPa 0,0 l/m 0,0 km/h (0 Bft) NO 45 0 min 0,0 UV-I -5,3 C -3,8 C 0,0 km/h (0 Bft)
28.03.2013 06:25 -3,1 C 7,4 C -2,9 C -3,3 C -3,7 C 0,0 C 85 % 87 % 0 % 1013,0 hPa 0,0 l/m 0,0 km/h (0 Bft) NO 45 0 min 0,0 UV-I -5,3 C -3,7 C 0,0 km/h (0 Bft)
28.03.2013 06:30 -3,1 C 7,4 C -2,9 C -3,3 C -3,6 C 0,0 C 85 % 87 % 0 % 1013,0 hPa 0,0 l/m 0,0 km/h (0 Bft) N 360 0 min 0,0 UV-I -5,3 C -3,6 C 0,0 km/h (0 Bft)
28.03.2013 06:35 -2,9 C 7,4 C -2,8 C -3,1 C -3,5 C 0,0 C 86 % 87 % 0 % 1013,0 hPa 0,0 l/m 0,0 km/h (0 Bft) N-NO 22 0 min 0,0 UV-I -4,9 C -3,5 C 0,0 km/h (0 Bft)
28.03.2013 06:41 -3,0 C 7,4 C -2,8 C -3,1 C -3,4 C 0,0 C 86 % 87 % 0 % 1013,0 hPa 0,0 l/m 0,0 km/h (0 Bft) N 0 0 min 0,0 UV-I -5,0 C -3,4 C 0,0 km/h (0 Bft)
28.03.2013 07:00 -2,5 C 7,3 C -2,3 C -2,5 C -2,6 C 0,0 C 86 % 87 % 0 % 1012,9 hPa 0,0 l/m 0,2 km/h (0 Bft) O 90 0 min 0,0 UV-I -4,5 C -2,6 C 0,0 km/h (0 Bft)
28.03.2013 07:05 -2,5 C 7,3 C -2,1 C -2,2 C -2,2 C 0,3 C 86 % 87 % 8 % 1012,9 hPa 0,0 l/m 0,3 km/h (0 Bft) O-NO 67 0 min 0,0 UV-I -4,5 C -2,2 C 0,0 km/h (0 Bft)
28.03.2013 07:10 -2,4 C 7,3 C -2,0 C -2,0 C -2,0 C 0,4 C 86 % 87 % 11 % 1012,9 hPa 0,0 l/m 0,3 km/h (0 Bft) O-NO 67 0 min 0,0 UV-I -4,4 C -2,0 C 2,7 km/h (1 Bft)
28.03.2013 07:15 -2,3 C 7,2 C -1,7 C -1,9 C -1,9 C 0,4 C 86 % 87 % 11 % 1013,1 hPa 0,0 l/m 0,3 km/h (0 Bft) SO 135 0 min 0,0 UV-I -4,3 C -1,9 C 0,0 km/h (0 Bft)
28.03.2013 07:20 -2,2 C 7,2 C -1,8 C -1,7 C -1,7 C 0,5 C 86 % 86 % 13 % 1013,1 hPa 0,0 l/m 0,6 km/h (0 Bft) O-NO 67 0 min 0,0 UV-I -4,2 C -1,7 C 1,9 km/h (1 Bft)
28.03.2013 07:25 -2,1 C 7,2 C -1,7 C -1,5 C -1,5 C 0,6 C 86 % 86 % 16 % 1013,1 hPa 0,0 l/m 0,5 km/h (0 Bft) O-NO 67 0 min 0,0 UV-I -4,1 C -1,5 C 0,0 km/h (0 Bft)
28.03.2013 07:30 -2,0 C 7,2 C -1,6 C -1,3 C -1,3 C 0,7 C 85 % 86 % 18 % 1013,1 hPa 0,0 l/m 0,3 km/h (0 Bft) N-NO 22 0 min 0,0 UV-I -4,2 C -1,3 C 0,0 km/h (0 Bft)
28.03.2013 07:35 -1,9 C 7,2 C -1,5 C -1,3 C -1,3 C 0,6 C 85 % 86 % 16 % 1013,2 hPa 0,0 l/m 0,6 km/h (0 Bft) O-NO 67 0 min 0,0 UV-I -4,1 C -1,3 C 0,0 km/h (0 Bft)
28.03.2013 07:40 -1,7 C 7,2 C -1,3 C -1,1 C -1,1 C 0,6 C 85 % 86 % 16 % 1013,2 hPa 0,0 l/m 0,5 km/h (0 Bft) O-NO 67 0 min 0,0 UV-I -3,9 C -1,1 C 1,6 km/h (1 Bft)
28.03.2013 07:45 -1,7 C 7,2 C -1,3 C -1,1 C -1,1 C 0,6 C 84 % 86 % 16 % 1013,2 hPa 0,0 l/m 2,4 km/h (1 Bft) O-NO 67 0 min 0,0 UV-I -4,0 C -1,1 C 6,1 km/h (2 Bft)
28.03.2013 07:50 -1,7 C 7,1 C -1,3 C -1,9 C -2,2 C 0,0 C 84 % 85 % 0 % 1013,2 hPa 0,0 l/m 4,0 km/h (1 Bft) O-NO 67 0 min 0,0 UV-I -4,0 C -2,2 C 5,1 km/h (1 Bft)
28.03.2013 07:55 -1,7 C 7,1 C -1,1 C -2,0 C -2,5 C 0,0 C 83 % 85 % 0 % 1013,2 hPa 0,0 l/m 4,8 km/h (1 Bft) O 90 0 min 0,0 UV-I -4,2 C -4,3 C 6,9 km/h (2 Bft)
28.03.2013 08:00 -1,7 C 7,1 C -1,1 C -2,0 C -2,7 C 0,0 C 83 % 85 % 0 % 1013,2 hPa 0,0 l/m 5,3 km/h (1 Bft) O 90 0 min 0,0 UV-I -4,2 C -4,8 C 6,4 km/h (2 Bft)
28.03.2013 08:05 -1,7 C 7,2 C -0,9 C -2,1 C -2,9 C 0,0 C 83 % 84 % 0 % 1013,2 hPa 0,0 l/m 6,0 km/h (2 Bft) O-NO 67 0 min 0,0 UV-I -4,2 C -5,4 C 6,6 km/h (2 Bft)
28.03.2013 08:10 -1,5 C 7,1 C -0,9 C -2,0 C -2,9 C 0,0 C 83 % 84 % 0 % 1013,2 hPa 0,0 l/m 6,1 km/h (2 Bft) O 90 0 min 0,0 UV-I -4,0 C -5,4 C 6,3 km/h (2 Bft)
28.03.2013 08:15 -1,6 C 7,1 C -0,8 C -2,0 C -2,9 C 0,0 C 83 % 84 % 0 % 1013,4 hPa 0,0 l/m 6,4 km/h (2 Bft) O 90 0 min 0,0 UV-I -4,1 C -5,5 C 5,8 km/h (2 Bft)
28.03.2013 08:20 -1,5 C 7,1 C -0,7 C -1,9 C -2,7 C 0,0 C 83 % 84 % 0 % 1013,4 hPa 0,0 l/m 6,3 km/h (2 Bft) O-NO 67 0 min 0,0 UV-I -4,0 C -5,3 C 5,5 km/h (1 Bft)
28.03.2013 08:25 -1,3 C 7,2 C -0,5 C -1,7 C -2,4 C 0,0 C 83 % 84 % 0 % 1013,4 hPa 0,0 l/m 6,0 km/h (2 Bft) O-NO 67 0 min 0,0 UV-I -3,8 C -4,8 C 5,5 km/h (1 Bft)
28.03.2013 08:30 -1,3 C 7,1 C -0,5 C -1,6 C -2,2 C 0,0 C 83 % 84 % 0 % 1013,4 hPa 0,0 l/m 5,8 km/h (2 Bft) O-NO 67 0 min 0,0 UV-I -3,8 C -4,5 C 5,5 km/h (1 Bft)
28.03.2013 08:35 -1,3 C 7,1 C -0,1 C -1,5 C -1,9 C 0,0 C 83 % 84 % 0 % 1012,9 hPa 0,0 l/m 6,1 km/h (2 Bft) O-NO 67 0 min 0,0 UV-I -3,8 C -4,3 C 8,2 km/h (2 Bft)
28.03.2013 08:40 -1,3 C 7,1 C -0,1 C -1,5 C -2,0 C 0,0 C 83 % 83 % 0 % 1012,9 hPa 0,0 l/m 6,6 km/h (2 Bft) O-SO 112 0 min 0,0 UV-I -3,8 C -4,6 C 7,6 km/h (2 Bft)
28.03.2013 08:45 -1,2 C 7,1 C -0,1 C -1,5 C -2,1 C 0,0 C 83 % 83 % 0 % 1012,9 hPa 0,0 l/m 7,6 km/h (2 Bft) O-NO 67 0 min 0,1 UV-I -3,7 C -5,1 C 10,1 km/h (2 Bft)
28.03.2013 08:50 -1,1 C 7,1 C 0,1 C -1,3 C -1,8 C 0,0 C 83 % 83 % 0 % 1012,9 hPa 0,0 l/m 7,2 km/h (2 Bft) O 90 0 min 0,1 UV-I -3,6 C -4,6 C 8,9 km/h (2 Bft)
28.03.2013 08:55 -0,9 C 7,1 C 0,4 C -1,0 C -1,3 C 0,0 C 82 % 82 % 0 % 1013,1 hPa 0,0 l/m 7,2 km/h (2 Bft) O-NO 67 0 min 0,1 UV-I -3,6 C -4,0 C 8,2 km/h (2 Bft)
28.03.2013 09:00 -0,9 C 7,1 C 0,5 C -0,9 C -0,9 C 0,0 C 82 % 82 % 0 % 1013,1 hPa 0,0 l/m 6,9 km/h (2 Bft) O-NO 67 0 min 0,2 UV-I -3,6 C -3,4 C 8,5 km/h (2 Bft)
28.03.2013 09:05 -0,7 C 7,1 C 0,8 C 0,3 C 0,3 C 1,0 C 82 % 82 % 26 % 1013,1 hPa 0,0 l/m 5,6 km/h (1 Bft) O 90 0 min 0,2 UV-I -3,4 C -1,5 C 3,9 km/h (1 Bft)
28.03.2013 09:10 -0,5 C 7,0 C 0,9 C 0,9 C 0,9 C 1,4 C 81 % 81 % 37 % 1013,1 hPa 0,0 l/m 5,1 km/h (1 Bft) O 90 0 min 0,3 UV-I -3,3 C -0,6 C 6,8 km/h (2 Bft)
28.03.2013 09:15 -0,4 C 6,9 C 1,1 C 1,7 C 1,7 C 2,1 C 81 % 80 % 55 % 1013,1 hPa 0,0 l/m 4,3 km/h (1 Bft) O-NO 67 0 min 0,3 UV-I -3,3 C 1,7 C 5,5 km/h (1 Bft)
28.03.2013 09:20 -0,4 C 6,9 C 1,2 C 1,6 C 1,6 C 2,0 C 81 % 80 % 53 % 1013,1 hPa 0,0 l/m 4,5 km/h (1 Bft) SO 135 0 min 0,3 UV-I -3,3 C 1,6 C 5,3 km/h (1 Bft)
28.03.2013 09:25 -0,3 C 6,9 C 1,2 C 1,2 C 1,2 C 1,5 C 79 % 79 % 39 % 1013,1 hPa 0,0 l/m 5,1 km/h (1 Bft) O 90 0 min 0,4 UV-I -3,5 C -0,3 C 4,3 km/h (1 Bft)
28.03.2013 09:30 -0,3 C 6,9 C 1,4 C 1,4 C 1,4 C 1,7 C 80 % 79 % 45 % 1013,1 hPa 0,0 l/m 5,0 km/h (1 Bft) O 90 0 min 0,4 UV-I -3,3 C -0,0 C 5,5 km/h (1 Bft)
28.03.2013 09:35 -0,1 C 6,9 C 1,6 C 1,5 C 1,5 C 1,6 C 79 % 78 % 42 % 1013,1 hPa 0,0 l/m 5,1 km/h (1 Bft) O-SO 112 0 min 0,4 UV-I -3,3 C 0,1 C 6,1 km/h (2 Bft)
28.03.2013 09:40 -0,1 C 6,9 C 1,5 C 1,2 C 1,2 C 1,3 C 79 % 78 % 34 % 1013,1 hPa 0,0 l/m 5,3 km/h (1 Bft) O-NO 67 0 min 0,5 UV-I -3,3 C -0,4 C 6,1 km/h (2 Bft)
28.03.2013 09:45 -0,3 C 6,9 C 1,3 C 0,7 C 0,7 C 1,0 C 79 % 77 % 26 % 1013,1 hPa 0,0 l/m 5,6 km/h (1 Bft) O 90 0 min 0,4 UV-I -3,5 C -1,1 C 6,3 km/h (2 Bft)
28.03.2013 09:50 -0,3 C 6,9 C 1,2 C 0,4 C 0,4 C 0,7 C 79 % 78 % 18 % 1013,1 hPa 0,0 l/m 6,0 km/h (2 Bft) O-NO 67 0 min 0,5 UV-I -3,5 C -1,6 C 5,0 km/h (1 Bft)
28.03.2013 09:55 -0,3 C 6,9 C 1,6 C 0,7 C 0,7 C 1,0 C 79 % 78 % 26 % 1012,9 hPa 0,0 l/m 6,0 km/h (2 Bft) O-SO 112 0 min 0,5 UV-I -3,5 C -1,2 C 6,9 km/h (2 Bft)
28.03.2013 10:00 -0,2 C 6,9 C 1,6 C 1,4 C 1,4 C 1,6 C 79 % 77 % 42 % 1012,9 hPa 0,0 l/m 5,0 km/h (1 Bft) O 90 0 min 0,5 UV-I -3,4 C -0,0 C 3,7 km/h (1 Bft)
28.03.2013 10:05 -0,1 C 6,9 C 1,6 C 1,2 C 1,2 C 1,3 C 79 % 77 % 34 % 1012,9 hPa 0,0 l/m 5,0 km/h (1 Bft) O 90 0 min 0,5 UV-I -3,3 C -0,2 C 6,6 km/h (2 Bft)
28.03.2013 10:10 -0,1 C 6,9 C 1,6 C 1,2 C 1,2 C 1,3 C 79 % 77 % 34 % 1012,9 hPa 0,0 l/m 5,0 km/h (1 Bft) O-NO 67 0 min 0,6 UV-I -3,3 C -0,2 C 8,9 km/h (2 Bft)
28.03.2013 10:15 0,1 C 6,9 C 1,7 C 1,6 C 1,6 C 1,5 C 79 % 77 % 39 % 1013,8 hPa 0,0 l/m 5,0 km/h (1 Bft) O 90 0 min 0,6 UV-I -3,1 C 0,2 C 7,9 km/h (2 Bft)
28.03.2013 10:20 0,0 C 6,9 C 1,8 C 1,4 C 1,4 C 1,4 C 78 % 78 % 37 % 1013,8 hPa 0,0 l/m 5,3 km/h (1 Bft) O 90 0 min 0,6 UV-I -3,4 C -0,1 C 10,0 km/h (2 Bft)
28.03.2013 10:25 0,1 C 6,9 C 1,9 C 1,1 C 1,1 C 1,0 C 78 % 77 % 26 % 1013,8 hPa 0,0 l/m 6,1 km/h (2 Bft) O-NO 67 0 min 0,7 UV-I -3,3 C -0,8 C 5,0 km/h (1 Bft)
28.03.2013 10:30 0,3 C 6,9 C 2,0 C 1,5 C 1,5 C 1,2 C 77 % 77 % 32 % 1013,8 hPa 0,0 l/m 6,1 km/h (2 Bft) O 90 0 min 0,7 UV-I -3,2 C -0,3 C 5,8 km/h (2 Bft)
28.03.2013 10:35 0,3 C 6,9 C 2,0 C 1,7 C 1,7 C 1,4 C 78 % 76 % 37 % 1013,6 hPa 0,0 l/m 6,1 km/h (2 Bft) O-NO 67 0 min 0,7 UV-I -3,1 C -0,1 C 10,0 km/h (2 Bft)
28.03.2013 10:40 0,4 C 6,9 C 2,1 C 1,7 C 1,7 C 1,3 C 77 % 75 % 34 % 1013,6 hPa 0,0 l/m 6,1 km/h (2 Bft) O-NO 67 0 min 0,8 UV-I -3,1 C -0,1 C 5,1 km/h (1 Bft)
28.03.2013 10:45 0,4 C 6,9 C 2,3 C 2,1 C 2,1 C 1,7 C 76 % 75 % 45 % 1013,6 hPa 0,0 l/m 5,6 km/h (1 Bft) O-SO 112 0 min 0,8 UV-I -3,3 C 0,5 C 8,5 km/h (2 Bft)
28.03.2013 10:50 0,4 C 6,9 C 2,3 C 1,9 C 1,9 C 1,5 C 76 % 75 % 39 % 1013,6 hPa 0,0 l/m 6,3 km/h (2 Bft) O-NO 67 0 min 0,9 UV-I -3,3 C 0,0 C 9,5 km/h (2 Bft)
28.03.2013 10:55 0,4 C 6,9 C 2,3 C 2,2 C 1,3 C 1,8 C 77 % 75 % 47 % 1013,6 hPa 0,0 l/m 8,0 km/h (2 Bft) O-NO 67 0 min 0,9 UV-I -3,1 C -1,2 C 10,8 km/h (2 Bft)
28.03.2013 11:00 0,4 C 6,9 C 2,3 C 1,9 C 1,0 C 1,5 C 77 % 75 % 39 % 1013,6 hPa 0,0 l/m 8,9 km/h (2 Bft) O-SO 112 0 min 0,9 UV-I -3,1 C -1,8 C 7,4 km/h (2 Bft)
28.03.2013 11:05 0,3 C 6,9 C 2,3 C 1,7 C 0,7 C 1,4 C 77 % 75 % 37 % 1013,6 hPa 0,0 l/m 9,5 km/h (2 Bft) O-SO 112 0 min 0,9 UV-I -3,2 C -2,3 C 12,2 km/h (2 Bft)
28.03.2013 11:10 0,4 C 6,9 C 2,4 C 1,7 C 1,0 C 1,3 C 77 % 75 % 34 % 1013,6 hPa 0,0 l/m 9,0 km/h (2 Bft) O 90 0 min 0,9 UV-I -3,1 C -1,9 C 7,1 km/h (2 Bft)
28.03.2013 11:15 0,4 C 6,9 C 2,7 C 2,0 C 2,0 C 1,6 C 76 % 75 % 42 % 1013,6 hPa 0,0 l/m 6,8 km/h (2 Bft) O-NO 67 0 min 1,0 UV-I -3,3 C -0,0 C 5,1 km/h (1 Bft)
28.03.2013 11:20 0,5 C 6,9 C 2,5 C 2,0 C 2,0 C 1,5 C 76 % 74 % 39 % 1013,6 hPa 0,0 l/m 6,9 km/h (2 Bft) O-NO 67 0 min 1,0 UV-I -3,2 C -0,0 C 10,6 km/h (2 Bft)
28.03.2013 11:25 0,4 C 6,9 C 2,3 C 2,1 C 1,0 C 1,7 C 76 % 74 % 45 % 1013,6 hPa 0,0 l/m 8,5 km/h (2 Bft) O-NO 67 0 min 0,9 UV-I -3,3 C -1,7 C 10,1 km/h (2 Bft)
28.03.2013 11:30 0,4 C 6,9 C 2,4 C 1,8 C 1,2 C 1,4 C 76 % 75 % 37 % 1013,6 hPa 0,0 l/m 7,7 km/h (2 Bft) O 90 0 min 0,9 UV-I -3,3 C -1,2 C 6,0 km/h (2 Bft)
28.03.2013 11:35 0,6 C 6,9 C 2,5 C 2,0 C 2,0 C 1,4 C 77 % 74 % 37 % 1013,4 hPa 0,0 l/m 6,0 km/h (2 Bft) O-NO 67 0 min 0,9 UV-I -3,0 C 0,3 C 9,3 km/h (2 Bft)
28.03.2013 11:40 0,7 C 6,9 C 2,5 C 2,2 C 2,2 C 1,5 C 76 % 74 % 39 % 1013,4 hPa 0,0 l/m 5,3 km/h (1 Bft) O-SO 112 0 min 0,7 UV-I -3,0 C 0,8 C 6,3 km/h (2 Bft)
28.03.2013 11:45 0,5 C 6,9 C 2,3 C 1,5 C 1,5 C 1,0 C 76 % 74 % 26 % 1013,4 hPa 0,0 l/m 6,4 km/h (2 Bft) O-NO 67 0 min 0,7 UV-I -3,2 C -0,4 C 8,2 km/h (2 Bft)
28.03.2013 11:50 0,4 C 6,9 C 2,2 C 1,6 C 0,6 C 1,2 C 76 % 74 % 32 % 1013,4 hPa 0,0 l/m 7,7 km/h (2 Bft) O 90 0 min 0,6 UV-I -3,3 C -1,9 C 11,6 km/h (2 Bft)
28.03.2013 11:55 0,5 C 6,9 C 1,9 C 1,0 C -0,1 C 0,5 C 76 % 75 % 13 % 1013,4 hPa 0,0 l/m 9,2 km/h (2 Bft) O-NO 67 0 min 0,6 UV-I -3,2 C -3,2 C 13,8 km/h (3 Bft)
28.03.2013 12:00 0,4 C 6,9 C 2,0 C 0,6 C -0,3 C 0,2 C 76 % 75 % 5 % 1013,4 hPa 0,0 l/m 8,9 km/h (2 Bft) O-NO 67 0 min 0,6 UV-I -3,3 C -3,4 C 12,1 km/h (2 Bft)
28.03.2013 12:05 0,5 C 6,9 C 2,0 C 0,2 C -0,3 C 0,0 C 76 % 75 % 0 % 1013,4 hPa 0,0 l/m 9,0 km/h (2 Bft) O 90 0 min 0,6 UV-I -3,2 C -3,4 C 8,4 km/h (2 Bft)
28.03.2013 12:10 0,4 C 6,9 C 2,0 C 0,4 C -0,6 C 0,0 C 76 % 75 % 0 % 1013,4 hPa 0,0 l/m 9,8 km/h (2 Bft) O 90 0 min 0,7 UV-I -3,3 C -4,0 C 9,7 km/h (2 Bft)
28.03.2013 12:15 0,4 C 6,9 C 2,0 C 0,5 C -0,4 C 0,1 C 76 % 75 % 3 % 1013,2 hPa 0,0 l/m 9,8 km/h (2 Bft) O 90 0 min 0,7 UV-I -3,3 C -3,7 C 14,8 km/h (3 Bft)
28.03.2013 12:20 0,4 C 6,9 C 2,0 C 0,6 C -0,3 C 0,2 C 76 % 75 % 5 % 1013,2 hPa 0,0 l/m 9,3 km/h (2 Bft) O-NO 67 0 min 0,7 UV-I -3,3 C -3,5 C 10,5 km/h (2 Bft)
28.03.2013 12:25 0,4 C 6,9 C 2,1 C 0,7 C -0,1 C 0,3 C 76 % 75 % 8 % 1013,2 hPa 0,0 l/m 9,2 km/h (2 Bft) O-NO 67 0 min 0,7 UV-I -3,3 C -3,2 C 12,4 km/h (3 Bft)
28.03.2013 12:30 0,5 C 6,9 C 2,1 C 0,7 C -0,2 C 0,2 C 75 % 74 % 5 % 1013,2 hPa 0,0 l/m 9,3 km/h (2 Bft) O 90 0 min 0,7 UV-I -3,4 C -3,4 C 10,5 km/h (2 Bft)
28.03.2013 12:35 0,5 C 6,9 C 2,0 C 0,8 C -0,1 C 0,3 C 75 % 74 % 8 % 1013,2 hPa 0,0 l/m 9,7 km/h (2 Bft) O-NO 67 0 min 0,7 UV-I -3,4 C -3,4 C 8,2 km/h (2 Bft)
28.03.2013 12:41 0,6 C 6,9 C 2,1 C 1,1 C 0,6 C 0,5 C 75 % 74 % 13 % 1013,2 hPa 0,0 l/m 8,4 km/h (2 Bft) N 0 0 min 0,7 UV-I -3,3 C -2,2 C 10,1 km/h (2 Bft)
28.03.2013 13:00 0,8 C 6,9 C 2,5 C 1,8 C 1,8 C 1,0 C 75 % 74 % 26 % 1013,3 hPa 0,0 l/m 6,4 km/h (2 Bft) O-NO 67 0 min 0,7 UV-I -3,1 C -0,1 C 15,1 km/h (3 Bft)
28.03.2013 13:05 0,9 C 6,9 C 2,7 C 2,1 C 2,1 C 1,2 C 75 % 73 % 32 % 1013,3 hPa 0,0 l/m 5,6 km/h (1 Bft) O-NO 67 0 min 0,7 UV-I -3,0 C 0,5 C 7,1 km/h (2 Bft)
28.03.2013 13:10 1,1 C 6,9 C 2,7 C 2,4 C 2,4 C 1,3 C 75 % 73 % 34 % 1013,3 hPa 0,0 l/m 5,3 km/h (1 Bft) O 90 0 min 0,7 UV-I -2,8 C 1,0 C 4,0 km/h (1 Bft)
28.03.2013 13:15 1,1 C 6,9 C 2,7 C 2,1 C 2,1 C 1,0 C 74 % 73 % 26 % 1013,3 hPa 0,0 l/m 5,6 km/h (1 Bft) O 90 0 min 0,7 UV-I -3,0 C 0,5 C 5,1 km/h (1 Bft)
28.03.2013 13:20 1,1 C 6,9 C 2,6 C 2,0 C 2,0 C 0,9 C 74 % 73 % 24 % 1013,3 hPa 0,0 l/m 6,0 km/h (2 Bft) O-NO 67 0 min 0,6 UV-I -3,0 C 0,3 C 9,7 km/h (2 Bft)
28.03.2013 13:25 1,1 C 6,9 C 2,4 C 1,5 C 1,5 C 0,4 C 74 % 73 % 11 % 1013,3 hPa 0,0 l/m 6,4 km/h (2 Bft) O 90 0 min 0,6 UV-I -3,0 C -0,4 C 6,0 km/h (2 Bft)
28.03.2013 13:30 1,0 C 6,9 C 2,4 C 1,3 C 1,3 C 0,3 C 74 % 73 % 8 % 1013,3 hPa 0,0 l/m 6,9 km/h (2 Bft) O 90 0 min 0,6 UV-I -3,1 C -0,9 C 7,4 km/h (2 Bft)
28.03.2013 13:35 1,1 C 6,9 C 2,5 C 1,3 C 1,3 C 0,2 C 75 % 74 % 5 % 1012,9 hPa 0,0 l/m 6,3 km/h (2 Bft) O-SO 112 0 min 0,5 UV-I -2,8 C -0,6 C 8,5 km/h (2 Bft)
28.03.2013 13:40 1,1 C 6,9 C 2,4 C 1,6 C 1,6 C 0,5 C 74 % 74 % 13 % 1012,9 hPa 0,0 l/m 6,0 km/h (2 Bft) O-NO 67 0 min 0,5 UV-I -3,0 C -0,2 C 6,3 km/h (2 Bft)
28.03.2013 13:45 1,1 C 6,9 C 2,4 C 1,3 C 1,3 C 0,2 C 73 % 73 % 5 % 1012,9 hPa 0,0 l/m 6,3 km/h (2 Bft) O-NO 67 0 min 0,5 UV-I -3,2 C -0,6 C 10,1 km/h (2 Bft)
28.03.2013 13:50 1,0 C 6,9 C 2,2 C 1,0 C 0,9 C 0,0 C 74 % 73 % 0 % 1012,9 hPa 0,0 l/m 6,6 km/h (2 Bft) O 90 0 min 0,5 UV-I -3,1 C -1,2 C 4,3 km/h (1 Bft)
28.03.2013 13:55 1,1 C 6,9 C 2,3 C 1,2 C 1,2 C 0,1 C 74 % 74 % 3 % 1012,8 hPa 0,0 l/m 5,8 km/h (2 Bft) O-NO 67 0 min 0,3 UV-I -3,0 C -0,6 C 6,4 km/h (2 Bft)
28.03.2013 14:00 1,1 C 6,9 C 2,0 C 1,2 C 1,2 C 0,1 C 74 % 74 % 3 % 1012,8 hPa 0,0 l/m 5,5 km/h (1 Bft) O 90 0 min 0,3 UV-I -3,0 C -0,4 C 5,8 km/h (2 Bft)
28.03.2013 14:05 1,1 C 6,9 C 2,0 C 0,9 C 0,4 C 0,0 C 74 % 74 % 0 % 1012,8 hPa 0,0 l/m 6,8 km/h (2 Bft) O 90 0 min 0,2 UV-I -3,0 C -1,9 C 8,0 km/h (2 Bft)
28.03.2013 14:10 1,1 C 6,9 C 2,0 C 0,8 C 0,3 C 0,0 C 75 % 75 % 0 % 1012,8 hPa 0,0 l/m 7,2 km/h (2 Bft) O-NO 67 0 min 0,3 UV-I -2,8 C -2,1 C 8,2 km/h (2 Bft)
28.03.2013 14:15 1,0 C 6,9 C 2,1 C 0,8 C 0,3 C 0,0 C 74 % 75 % 0 % 1012,9 hPa 0,0 l/m 6,6 km/h (2 Bft) O-NO 67 0 min 0,2 UV-I -3,1 C -1,9 C 9,0 km/h (2 Bft)
28.03.2013 14:20 1,1 C 6,9 C 2,0 C 0,8 C 0,2 C 0,0 C 74 % 75 % 0 % 1012,9 hPa 0,0 l/m 7,1 km/h (2 Bft) O-NO 67 0 min 0,2 UV-I -3,0 C -2,2 C 6,9 km/h (2 Bft)
28.03.2013 14:25 1,0 C 6,9 C 2,1 C 0,8 C 0,3 C 0,0 C 74 % 75 % 0 % 1012,9 hPa 0,0 l/m 7,2 km/h (2 Bft) O-SO 112 0 min 0,3 UV-I -3,1 C -2,1 C 16,1 km/h (3 Bft)
28.03.2013 14:30 1,1 C 6,9 C 2,1 C 0,8 C 0,3 C 0,0 C 74 % 74 % 0 % 1012,9 hPa 0,0 l/m 7,1 km/h (2 Bft) O-NO 67 0 min 0,2 UV-I -3,0 C -2,1 C 11,7 km/h (2 Bft)
28.03.2013 14:35 1,0 C 6,9 C 1,9 C 0,9 C -0,3 C 0,0 C 74 % 75 % 0 % 1012,9 hPa 0,0 l/m 8,9 km/h (2 Bft) O 90 0 min 0,2 UV-I -3,1 C -3,4 C 10,6 km/h (2 Bft)
28.03.2013 14:40 1,1 C 6,9 C 2,0 C 0,9 C -0,2 C 0,0 C 74 % 75 % 0 % 1012,9 hPa 0,0 l/m 8,5 km/h (2 Bft) O-SO 112 0 min 0,2 UV-I -3,0 C -3,1 C 9,0 km/h (2 Bft)
28.03.2013 14:45 1,1 C 6,9 C 2,1 C 1,0 C 0,2 C 0,0 C 74 % 75 % 0 % 1012,9 hPa 0,0 l/m 8,0 km/h (2 Bft) O-SO 112 0 min 0,2 UV-I -3,0 C -2,5 C 7,4 km/h (2 Bft)
28.03.2013 14:50 1,1 C 6,9 C 2,3 C 1,2 C 0,6 C 0,1 C 74 % 75 % 3 % 1012,9 hPa 0,0 l/m 8,2 km/h (2 Bft) O-NO 67 0 min 0,2 UV-I -3,0 C -2,1 C 9,8 km/h (2 Bft)
28.03.2013 14:55 1,5 C 6,9 C 2,7 C 2,6 C 2,6 C 1,1 C 74 % 74 % 29 % 1012,9 hPa 0,0 l/m 8,9 km/h (2 Bft) O-NO 67 0 min 0,5 UV-I -2,6 C 0,1 C 12,7 km/h (3 Bft)
28.03.2013 15:00 1,5 C 6,9 C 2,4 C 3,5 C 2,9 C 2,0 C 73 % 74 % 53 % 1012,9 hPa 0,0 l/m 9,7 km/h (2 Bft) NO 45 0 min 0,5 UV-I -2,8 C 0,2 C 11,1 km/h (2 Bft)
28.03.2013 15:05 1,5 C 6,9 C 2,3 C 3,5 C 2,6 C 2,0 C 74 % 74 % 53 % 1012,9 hPa 0,0 l/m 10,8 km/h (2 Bft) O-NO 67 0 min 0,6 UV-I -2,6 C -0,4 C 9,3 km/h (2 Bft)
28.03.2013 15:10 1,5 C 6,9 C 2,1 C 3,6 C 2,9 C 2,1 C 74 % 74 % 55 % 1012,9 hPa 0,0 l/m 10,1 km/h (2 Bft) O-NO 67 0 min 0,5 UV-I -2,6 C 0,1 C 9,3 km/h (2 Bft)
28.03.2013 15:15 1,5 C 6,9 C 2,1 C 3,5 C 2,7 C 2,0 C 73 % 74 % 53 % 1012,9 hPa 0,0 l/m 10,0 km/h (2 Bft) O 90 0 min 0,5 UV-I -2,8 C -0,1 C 13,0 km/h (3 Bft)
28.03.2013 15:20 1,4 C 6,9 C 2,0 C 3,2 C 2,3 C 1,8 C 73 % 75 % 47 % 1012,9 hPa 0,0 l/m 10,1 km/h (2 Bft) O 90 0 min 0,4 UV-I -2,9 C -0,6 C 12,7 km/h (3 Bft)
28.03.2013 15:25 1,5 C 6,9 C 2,0 C 3,1 C 2,4 C 1,6 C 74 % 76 % 42 % 1012,9 hPa 0,0 l/m 9,0 km/h (2 Bft) O-NO 67 0 min 0,4 UV-I -2,6 C -0,2 C 10,1 km/h (2 Bft)
28.03.2013 15:30 1,5 C 6,9 C 2,0 C 3,3 C 2,6 C 1,8 C 74 % 76 % 47 % 1012,9 hPa 0,0 l/m 9,0 km/h (2 Bft) O-SO 112 0 min 0,3 UV-I -2,6 C 0,0 C 12,9 km/h (3 Bft)
28.03.2013 15:35 1,5 C 6,9 C 2,0 C 3,2 C 2,3 C 1,7 C 74 % 75 % 45 % 1012,3 hPa 0,0 l/m 10,0 km/h (2 Bft) O 90 0 min 0,3 UV-I -2,6 C -0,6 C 12,4 km/h (3 Bft)
28.03.2013 15:40 1,5 C 6,9 C 1,9 C 2,9 C 1,9 C 1,4 C 73 % 75 % 37 % 1012,3 hPa 0,0 l/m 10,8 km/h (2 Bft) O-NO 67 0 min 0,3 UV-I -2,8 C -1,2 C 13,4 km/h (3 Bft)
28.03.2013 15:45 1,5 C 6,9 C 1,9 C 2,8 C 2,1 C 1,3 C 74 % 76 % 34 % 1012,3 hPa 0,0 l/m 9,8 km/h (2 Bft) O-NO 67 0 min 0,2 UV-I -2,6 C -0,8 C 10,8 km/h (2 Bft)
28.03.2013 15:50 1,4 C 6,9 C 1,9 C 3,0 C 2,3 C 1,6 C 74 % 76 % 42 % 1012,3 hPa 0,0 l/m 9,2 km/h (2 Bft) O-NO 67 0 min 0,2 UV-I -2,7 C -0,4 C 9,7 km/h (2 Bft)
28.03.2013 15:55 1,5 C 6,9 C 1,9 C 3,0 C 2,2 C 1,5 C 73 % 76 % 39 % 1012,5 hPa 0,0 l/m 9,7 km/h (2 Bft) O-NO 67 0 min 0,2 UV-I -2,8 C -0,6 C 8,2 km/h (2 Bft)
28.03.2013 16:00 1,4 C 6,9 C 1,9 C 3,0 C 2,3 C 1,6 C 74 % 76 % 42 % 1012,5 hPa 0,0 l/m 8,9 km/h (2 Bft) O 90 0 min 0,2 UV-I -2,7 C -0,3 C 7,7 km/h (2 Bft)
28.03.2013 16:05 1,6 C 6,9 C 1,9 C 3,3 C 2,9 C 1,7 C 74 % 76 % 45 % 1012,5 hPa 0,0 l/m 7,7 km/h (2 Bft) O-NO 67 0 min 0,1 UV-I -2,5 C 0,8 C 7,7 km/h (2 Bft)
28.03.2013 16:10 1,7 C 6,9 C 2,0 C 2,9 C 2,9 C 1,2 C 74 % 76 % 32 % 1012,5 hPa 0,0 l/m 7,7 km/h (2 Bft) O 90 0 min 0,1 UV-I -2,4 C 0,8 C 12,6 km/h (3 Bft)
28.03.2013 16:15 1,5 C 6,9 C 1,9 C 3,3 C 2,4 C 1,8 C 73 % 76 % 47 % 1012,5 hPa 0,0 l/m 8,5 km/h (2 Bft) O-NO 67 0 min 0,1 UV-I -2,8 C -0,1 C 11,9 km/h (2 Bft)
28.03.2013 16:20 1,6 C 6,9 C 2,0 C 2,9 C 1,9 C 1,3 C 73 % 76 % 34 % 1012,5 hPa 0,0 l/m 9,5 km/h (2 Bft) O-NO 67 0 min 0,1 UV-I -2,7 C -0,9 C 11,7 km/h (2 Bft)
28.03.2013 16:25 1,6 C 6,9 C 2,3 C 2,6 C 1,7 C 1,0 C 73 % 75 % 26 % 1012,5 hPa 0,0 l/m 9,5 km/h (2 Bft) SO 135 0 min 0,0 UV-I -2,7 C -1,2 C 8,4 km/h (2 Bft)
28.03.2013 16:30 1,5 C 6,9 C 2,5 C 2,5 C 1,8 C 1,0 C 73 % 74 % 26 % 1012,5 hPa 0,0 l/m 9,2 km/h (2 Bft) O-NO 67 0 min 0,0 UV-I -2,8 C -1,0 C 10,1 km/h (2 Bft)
28.03.2013 16:35 1,6 C 7,0 C 2,4 C 2,7 C 2,1 C 1,1 C 73 % 74 % 29 % 1011,7 hPa 0,0 l/m 7,7 km/h (2 Bft) NO 45 0 min 0,0 UV-I -2,7 C -0,2 C 5,6 km/h (1 Bft)
28.03.2013 16:40 1,6 C 7,0 C 2,0 C 1,6 C 1,6 C 0,0 C 72 % 74 % 0 % 1011,7 hPa 0,0 l/m 7,2 km/h (2 Bft) O-SO 112 0 min 0,0 UV-I -2,9 C -0,6 C 7,6 km/h (2 Bft)
28.03.2013 16:45 1,5 C 7,0 C 1,7 C 1,2 C 0,6 C 0,0 C 72 % 74 % 0 % 1011,7 hPa 0,0 l/m 7,4 km/h (2 Bft) O 90 0 min 0,0 UV-I -3,0 C -1,8 C 11,3 km/h (2 Bft)
28.03.2013 16:50 1,5 C 6,9 C 1,6 C 1,3 C -0,1 C 0,0 C 72 % 75 % 0 % 1011,7 hPa 0,0 l/m 8,5 km/h (2 Bft) O-NO 67 0 min 0,0 UV-I -3,0 C -3,0 C 9,0 km/h (2 Bft)
28.03.2013 16:55 1,5 C 6,9 C 1,5 C 1,2 C -0,4 C 0,0 C 72 % 75 % 0 % 1011,9 hPa 0,0 l/m 9,0 km/h (2 Bft) O-NO 67 0 min 0,0 UV-I -3,0 C -3,5 C 9,2 km/h (2 Bft)
28.03.2013 17:00 1,4 C 6,9 C 1,5 C 0,8 C -0,4 C 0,0 C 72 % 76 % 0 % 1011,9 hPa 0,0 l/m 8,7 km/h (2 Bft) O 90 0 min 0,0 UV-I -3,1 C -3,4 C 10,0 km/h (2 Bft)
28.03.2013 17:05 1,3 C 6,9 C 1,3 C 0,7 C -0,4 C 0,0 C 72 % 75 % 0 % 1011,9 hPa 0,0 l/m 8,2 km/h (2 Bft) O-SO 112 0 min 0,0 UV-I -3,2 C -3,3 C 8,0 km/h (2 Bft)
28.03.2013 17:10 1,3 C 6,9 C 1,2 C 0,8 C -0,3 C 0,0 C 72 % 75 % 0 % 1011,9 hPa 0,0 l/m 7,2 km/h (2 Bft) S-SO 157 0 min 0,0 UV-I -3,2 C -2,8 C 4,8 km/h (1 Bft)
28.03.2013 17:15 1,3 C 6,9 C 1,2 C 0,8 C -0,2 C 0,0 C 72 % 76 % 0 % 1011,4 hPa 0,0 l/m 7,6 km/h (2 Bft) W 270 0 min 0,0 UV-I -3,2 C -2,8 C 8,9 km/h (2 Bft)
28.03.2013 17:20 1,3 C 6,9 C 1,2 C 0,8 C -0,2 C 0,0 C 72 % 76 % 0 % 1011,4 hPa 0,0 l/m 8,0 km/h (2 Bft) O-NO 67 0 min 0,0 UV-I -3,2 C -3,0 C 11,7 km/h (2 Bft)
28.03.2013 17:25 1,2 C 6,9 C 1,1 C 0,9 C -0,7 C 0,0 C 72 % 76 % 0 % 1011,4 hPa 0,0 l/m 8,2 km/h (2 Bft) O 90 0 min 0,0 UV-I -3,3 C -3,6 C 7,6 km/h (2 Bft)
28.03.2013 17:30 1,3 C 6,9 C 0,9 C 0,8 C -1,1 C 0,0 C 72 % 76 % 0 % 1011,4 hPa 0,0 l/m 9,0 km/h (2 Bft) O-NO 67 0 min 0,0 UV-I -3,2 C -4,3 C 9,2 km/h (2 Bft)
28.03.2013 17:35 1,2 C 6,9 C 0,9 C 0,7 C -1,3 C 0,0 C 72 % 76 % 0 % 1011,4 hPa 0,0 l/m 8,2 km/h (2 Bft) O-NO 67 0 min 0,0 UV-I -3,3 C -4,3 C 11,1 km/h (2 Bft)
28.03.2013 17:40 1,2 C 6,9 C 0,8 C 0,7 C -0,9 C 0,0 C 72 % 77 % 0 % 1011,4 hPa 0,0 l/m 7,7 km/h (2 Bft) NO 45 0 min 0,0 UV-I -3,3 C -3,7 C 5,5 km/h (1 Bft)
28.03.2013 17:45 1,1 C 6,9 C 0,8 C 0,6 C -1,4 C 0,0 C 72 % 77 % 0 % 1011,4 hPa 0,0 l/m 8,7 km/h (2 Bft) O-SO 112 0 min 0,0 UV-I -3,4 C -4,6 C 8,2 km/h (2 Bft)
28.03.2013 17:50 1,1 C 6,9 C 0,8 C 0,3 C -1,2 C 0,0 C 72 % 77 % 0 % 1011,4 hPa 0,0 l/m 7,4 km/h (2 Bft) O-NO 67 0 min 0,0 UV-I -3,4 C -3,9 C 3,4 km/h (1 Bft)
28.03.2013 17:55 1,1 C 6,9 C 0,5 C 0,5 C -0,8 C 0,0 C 72 % 77 % 0 % 1011,4 hPa 0,0 l/m 5,5 km/h (1 Bft) O-SO 112 0 min 0,0 UV-I -3,4 C -2,7 C 9,2 km/h (2 Bft)
28.03.2013 18:00 0,9 C 6,9 C 0,5 C 0,3 C -0,8 C 0,0 C 73 % 77 % 0 % 1011,4 hPa 0,0 l/m 5,1 km/h (1 Bft) O-NO 67 0 min 0,0 UV-I -3,4 C -2,5 C 5,5 km/h (1 Bft)
28.03.2013 18:05 0,8 C 6,9 C 0,4 C 0,2 C -0,9 C 0,0 C 73 % 77 % 0 % 1011,4 hPa 0,0 l/m 5,1 km/h (1 Bft) NO 45 0 min 0,0 UV-I -3,5 C -2,7 C 6,1 km/h (2 Bft)
28.03.2013 18:10 0,9 C 6,9 C 0,3 C 0,4 C -0,7 C 0,0 C 72 % 77 % 0 % 1011,4 hPa 0,0 l/m 4,5 km/h (1 Bft) O 90 0 min 0,0 UV-I -3,6 C -0,7 C 4,0 km/h (1 Bft)
28.03.2013 18:15 0,7 C 6,9 C 0,3 C 0,1 C -1,1 C 0,0 C 72 % 77 % 0 % 1011,5 hPa 0,0 l/m 5,1 km/h (1 Bft) O-NO 67 0 min 0,0 UV-I -3,8 C -2,9 C 8,9 km/h (2 Bft)
28.03.2013 18:20 0,7 C 6,9 C 0,3 C 0,1 C -1,1 C 0,0 C 72 % 77 % 0 % 1011,5 hPa 0,0 l/m 5,1 km/h (1 Bft) O-NO 67 0 min 0,0 UV-I -3,8 C -2,9 C 4,0 km/h (1 Bft)
28.03.2013 18:25 0,7 C 6,9 C 0,2 C -0,1 C -1,8 C 0,0 C 72 % 77 % 0 % 1011,5 hPa 0,0 l/m 5,5 km/h (1 Bft) O 90 0 min 0,0 UV-I -3,8 C -3,9 C 6,6 km/h (2 Bft)
28.03.2013 18:30 0,6 C 6,9 C 0,1 C -0,2 C -1,9 C 0,0 C 72 % 77 % 0 % 1011,5 hPa 0,0 l/m 5,1 km/h (1 Bft) O-NO 67 0 min 0,0 UV-I -3,9 C -3,8 C 4,7 km/h (1 Bft)
28.03.2013 18:35 0,4 C 6,9 C 0,1 C -0,5 C -2,3 C 0,0 C 73 % 78 % 0 % 1011,2 hPa 0,0 l/m 5,5 km/h (1 Bft) O-NO 67 0 min 0,0 UV-I -3,9 C -4,4 C 6,0 km/h (2 Bft)
28.03.2013 18:41 0,4 C 6,9 C -0,1 C -0,4 C -2,1 C 0,0 C 73 % 77 % 0 % 1011,2 hPa 0,0 l/m 4,8 km/h (1 Bft) N 0 0 min 0,0 UV-I -3,9 C -3,9 C 4,0 km/h (1 Bft)
28.03.2013 19:00 0,0 C 6,9 C -0,4 C -0,7 C -2,1 C 0,0 C 74 % 79 % 0 % 1011,1 hPa 0,0 l/m 3,7 km/h (1 Bft) O-NO 67 0 min 0,0 UV-I -4,1 C -2,1 C 3,7 km/h (1 Bft)
28.03.2013 19:05 -0,1 C 6,9 C -0,5 C -1,0 C -2,7 C 0,0 C 74 % 79 % 0 % 1011,1 hPa 0,0 l/m 4,3 km/h (1 Bft) NO 45 0 min 0,0 UV-I -4,2 C -2,7 C 4,3 km/h (1 Bft)
28.03.2013 19:10 -0,1 C 6,9 C -0,5 C -1,0 C -2,8 C 0,0 C 74 % 79 % 0 % 1011,1 hPa 0,0 l/m 4,5 km/h (1 Bft) O-SO 112 0 min 0,0 UV-I -4,2 C -2,8 C 7,1 km/h (2 Bft)
28.03.2013 19:15 -0,2 C 6,9 C -0,5 C -1,1 C -2,9 C 0,0 C 74 % 79 % 0 % 1011,1 hPa 0,0 l/m 4,8 km/h (1 Bft) O-NO 67 0 min 0,0 UV-I -4,3 C -4,8 C 4,8 km/h (1 Bft)
28.03.2013 19:20 -0,2 C 6,9 C -0,5 C -1,1 C -2,9 C 0,0 C 74 % 79 % 0 % 1011,1 hPa 0,0 l/m 4,7 km/h (1 Bft) O 90 0 min 0,0 UV-I -4,3 C -4,7 C 6,3 km/h (2 Bft)
28.03.2013 19:25 -0,3 C 6,9 C -0,8 C -1,0 C -2,3 C 0,0 C 74 % 79 % 0 % 1011,1 hPa 0,0 l/m 3,4 km/h (1 Bft) O-NO 67 0 min 0,0 UV-I -4,4 C -2,3 C 3,4 km/h (1 Bft)
28.03.2013 19:30 -0,3 C 6,9 C -0,8 C -0,9 C -2,2 C 0,0 C 75 % 79 % 0 % 1011,1 hPa 0,0 l/m 2,9 km/h (1 Bft) O-NO 67 0 min 0,0 UV-I -4,2 C -2,2 C 2,9 km/h (1 Bft)
28.03.2013 19:35 -0,5 C 6,9 C -0,7 C -1,3 C -2,8 C 0,0 C 75 % 80 % 0 % 1010,8 hPa 0,0 l/m 3,7 km/h (1 Bft) O 90 0 min 0,0 UV-I -4,4 C -2,8 C 6,8 km/h (2 Bft)
28.03.2013 19:40 -0,5 C 6,9 C -0,9 C -1,3 C -2,8 C 0,0 C 75 % 80 % 0 % 1010,8 hPa 0,0 l/m 3,9 km/h (1 Bft) O-NO 67 0 min 0,0 UV-I -4,4 C -2,8 C 2,9 km/h (1 Bft)
28.03.2013 19:45 -0,5 C 6,9 C -0,9 C -1,2 C -2,6 C 0,0 C 75 % 80 % 0 % 1010,8 hPa 0,0 l/m 3,5 km/h (1 Bft) NO 45 0 min 0,0 UV-I -4,4 C -2,6 C 2,7 km/h (1 Bft)
28.03.2013 19:50 -0,5 C 6,9 C -0,9 C -1,1 C -2,3 C 0,0 C 76 % 80 % 0 % 1010,8 hPa 0,0 l/m 3,4 km/h (1 Bft) O-NO 67 0 min 0,0 UV-I -4,2 C -2,3 C 2,9 km/h (1 Bft)
28.03.2013 19:55 -0,5 C 6,9 C -0,8 C -1,0 C -2,0 C 0,0 C 76 % 81 % 0 % 1010,8 hPa 0,0 l/m 3,2 km/h (1 Bft) O-SO 112 0 min 0,0 UV-I -4,2 C -2,0 C 3,2 km/h (1 Bft)
28.03.2013 20:00 -0,5 C 6,9 C -0,8 C -0,9 C -1,7 C 0,0 C 76 % 80 % 0 % 1010,8 hPa 0,0 l/m 2,7 km/h (1 Bft) O-NO 67 0 min 0,0 UV-I -4,2 C -1,7 C 1,9 km/h (1 Bft)
28.03.2013 20:05 -0,5 C 6,9 C -0,7 C -0,8 C -1,3 C 0,0 C 77 % 81 % 0 % 1010,8 hPa 0,0 l/m 2,4 km/h (1 Bft) O-NO 67 0 min 0,0 UV-I -4,0 C -1,3 C 2,9 km/h (1 Bft)
28.03.2013 20:10 -0,5 C 6,9 C -0,7 C -0,8 C -1,5 C 0,0 C 77 % 81 % 0 % 1010,8 hPa 0,0 l/m 2,6 km/h (1 Bft) O-NO 67 0 min 0,0 UV-I -4,0 C -1,5 C 2,7 km/h (1 Bft)
28.03.2013 20:15 -0,6 C 6,9 C -0,7 C -1,0 C -1,9 C 0,0 C 77 % 80 % 0 % 1010,8 hPa 0,0 l/m 3,4 km/h (1 Bft) O-NO 67 0 min 0,0 UV-I -4,1 C -1,9 C 5,1 km/h (1 Bft)
28.03.2013 20:20 -0,5 C 6,9 C -0,5 C -1,0 C -1,9 C 0,0 C 77 % 80 % 0 % 1010,8 hPa 0,0 l/m 3,5 km/h (1 Bft) O-NO 67 0 min 0,0 UV-I -4,0 C -1,9 C 3,5 km/h (1 Bft)
28.03.2013 20:25 -0,5 C 6,9 C -0,5 C -1,0 C -2,0 C 0,0 C 77 % 80 % 0 % 1010,8 hPa 0,0 l/m 3,7 km/h (1 Bft) O 90 0 min 0,0 UV-I -4,0 C -2,0 C 5,1 km/h (1 Bft)
28.03.2013 20:30 -0,5 C 6,9 C -0,5 C -1,0 C -1,9 C 0,0 C 77 % 80 % 0 % 1010,8 hPa 0,0 l/m 3,5 km/h (1 Bft) O-NO 67 0 min 0,0 UV-I -4,0 C -1,9 C 3,1 km/h (1 Bft)
28.03.2013 20:35 -0,5 C 7,0 C -0,7 C -1,0 C -1,9 C 0,0 C 77 % 80 % 0 % 1010,8 hPa 0,0 l/m 3,5 km/h (1 Bft) O 90 0 min 0,0 UV-I -4,0 C -1,9 C 5,0 km/h (1 Bft)
28.03.2013 20:40 -0,5 C 7,0 C -0,5 C -0,9 C -1,8 C 0,0 C 77 % 81 % 0 % 1010,8 hPa 0,0 l/m 3,4 km/h (1 Bft) O-NO 67 0 min 0,0 UV-I -4,0 C -1,8 C 2,4 km/h (1 Bft)
28.03.2013 20:45 -0,5 C 7,0 C -0,7 C -1,0 C -2,1 C 0,0 C 77 % 81 % 0 % 1010,8 hPa 0,0 l/m 3,7 km/h (1 Bft) O-NO 67 0 min 0,0 UV-I -4,0 C -2,1 C 6,4 km/h (2 Bft)
28.03.2013 20:50 -0,5 C 7,0 C -0,7 C -1,0 C -1,9 C 0,0 C 77 % 81 % 0 % 1010,8 hPa 0,0 l/m 3,4 km/h (1 Bft) O-SO 112 0 min 0,0 UV-I -4,0 C -1,9 C 3,9 km/h (1 Bft)
28.03.2013 20:55 -0,6 C 6,9 C -0,5 C -1,1 C -2,0 C 0,0 C 77 % 81 % 0 % 1010,8 hPa 0,0 l/m 3,5 km/h (1 Bft) O-NO 67 0 min 0,0 UV-I -4,1 C -2,0 C 4,5 km/h (1 Bft)
28.03.2013 21:00 -0,5 C 7,0 C -0,7 C -1,0 C -1,9 C 0,0 C 77 % 81 % 0 % 1010,8 hPa 0,0 l/m 3,4 km/h (1 Bft) O-NO 67 0 min 0,0 UV-I -4,0 C -1,9 C 3,1 km/h (1 Bft)
28.03.2013 21:05 -0,5 C 6,9 C -0,7 C -0,8 C -1,5 C 0,0 C 77 % 81 % 0 % 1010,8 hPa 0,0 l/m 2,7 km/h (1 Bft) O-NO 67 0 min 0,0 UV-I -4,0 C -1,5 C 2,4 km/h (1 Bft)
28.03.2013 21:10 -0,5 C 7,0 C -0,7 C -0,7 C -1,2 C 0,0 C 77 % 81 % 0 % 1010,8 hPa 0,0 l/m 2,4 km/h (1 Bft) O-NO 67 0 min 0,0 UV-I -4,0 C -1,2 C 2,1 km/h (1 Bft)
28.03.2013 21:15 -0,5 C 7,0 C -0,7 C -0,7 C -1,1 C 0,0 C 77 % 81 % 0 % 1010,5 hPa 0,0 l/m 1,8 km/h (1 Bft) O-NO 67 0 min 0,0 UV-I -4,0 C -1,1 C 1,8 km/h (1 Bft)
28.03.2013 21:20 -0,5 C 6,9 C -0,5 C -0,7 C -1,1 C 0,0 C 77 % 81 % 0 % 1010,5 hPa 0,0 l/m 1,6 km/h (1 Bft) O-NO 67 0 min 0,0 UV-I -4,0 C -1,1 C 2,1 km/h (1 Bft)
28.03.2013 21:25 -0,6 C 7,0 C -0,5 C -0,8 C -1,1 C 0,0 C 77 % 81 % 0 % 1010,5 hPa 0,0 l/m 1,8 km/h (1 Bft) O 90 0 min 0,0 UV-I -4,1 C -1,1 C 1,6 km/h (1 Bft)
28.03.2013 21:30 -0,5 C 7,0 C -0,7 C -0,7 C -1,2 C 0,0 C 78 % 81 % 0 % 1010,5 hPa 0,0 l/m 1,9 km/h (1 Bft) O-NO 67 0 min 0,0 UV-I -3,9 C -1,2 C 2,3 km/h (1 Bft)
28.03.2013 21:35 -0,7 C 7,0 C -0,7 C -0,9 C -1,2 C 0,0 C 78 % 81 % 0 % 1010,4 hPa 0,0 l/m 1,6 km/h (1 Bft) O-NO 67 0 min 0,0 UV-I -4,0 C -1,2 C 2,4 km/h (1 Bft)
28.03.2013 21:40 -0,7 C 7,0 C -0,7 C -0,9 C -1,3 C 0,0 C 78 % 81 % 0 % 1010,4 hPa 0,0 l/m 1,8 km/h (1 Bft) O-NO 67 0 min 0,0 UV-I -4,0 C -1,3 C 2,3 km/h (1 Bft)
28.03.2013 21:45 -0,7 C 7,0 C -0,7 C -0,9 C -1,3 C 0,0 C 78 % 81 % 0 % 1010,4 hPa 0,0 l/m 2,3 km/h (1 Bft) O-NO 67 0 min 0,0 UV-I -4,0 C -1,3 C 3,4 km/h (1 Bft)
28.03.2013 21:50 -0,7 C 7,0 C -0,7 C -0,9 C -1,3 C 0,0 C 78 % 81 % 0 % 1010,4 hPa 0,0 l/m 2,1 km/h (1 Bft) O-NO 67 0 min 0,0 UV-I -4,0 C -1,3 C 2,1 km/h (1 Bft)
28.03.2013 21:55 -0,7 C 7,0 C -0,8 C -0,9 C -1,4 C 0,0 C 79 % 82 % 0 % 1009,9 hPa 0,0 l/m 2,4 km/h (1 Bft) O-NO 67 0 min 0,0 UV-I -3,9 C -1,4 C 2,9 km/h (1 Bft)
28.03.2013 22:00 -0,7 C 7,0 C -0,7 C -0,9 C -1,4 C 0,0 C 79 % 82 % 0 % 1009,9 hPa 0,0 l/m 2,4 km/h (1 Bft) O-NO 67 0 min 0,0 UV-I -3,9 C -1,4 C 1,9 km/h (1 Bft)
28.03.2013 22:05 -0,7 C 7,0 C -0,7 C -0,9 C -1,3 C 0,0 C 79 % 82 % 0 % 1009,9 hPa 0,0 l/m 1,4 km/h (1 Bft) O-NO 67 0 min 0,0 UV-I -3,9 C -1,3 C 0,0 km/h (0 Bft)
28.03.2013 22:10 -0,7 C 7,0 C -0,8 C -0,9 C -1,3 C 0,0 C 79 % 82 % 0 % 1009,9 hPa 0,0 l/m 1,0 km/h (0 Bft) N-NW 337 0 min 0,0 UV-I -3,9 C -1,3 C 1,8 km/h (1 Bft)
28.03.2013 22:15 -0,8 C 7,0 C -0,9 C -1,0 C -1,4 C 0,0 C 79 % 82 % 0 % 1009,9 hPa 0,0 l/m 0,5 km/h (0 Bft) N-NO 22 0 min 0,0 UV-I -4,0 C -1,4 C 0,0 km/h (0 Bft)
28.03.2013 22:20 -0,7 C 7,0 C -0,9 C -1,0 C -1,6 C 0,0 C 79 % 82 % 0 % 1009,9 hPa 0,0 l/m 0,2 km/h (0 Bft) O-NO 67 0 min 0,0 UV-I -3,9 C -1,6 C 0,0 km/h (0 Bft)
28.03.2013 22:25 -0,9 C 7,1 C -1,2 C -1,2 C -1,9 C 0,0 C 79 % 82 % 0 % 1009,9 hPa 0,0 l/m 0,0 km/h (0 Bft) O-NO 67 0 min 0,0 UV-I -4,1 C -1,9 C 0,0 km/h (0 Bft)
28.03.2013 22:30 -0,9 C 7,1 C -1,3 C -1,3 C -2,0 C 0,0 C 79 % 82 % 0 % 1009,9 hPa 0,0 l/m 0,0 km/h (0 Bft) NO 45 0 min 0,0 UV-I -4,1 C -2,0 C 0,0 km/h (0 Bft)
28.03.2013 22:35 -1,0 C 7,1 C -1,1 C -1,3 C -1,9 C 0,0 C 80 % 83 % 0 % 1009,9 hPa 0,0 l/m 0,3 km/h (0 Bft) N 360 0 min 0,0 UV-I -4,0 C -1,9 C 0,0 km/h (0 Bft)
28.03.2013 22:40 -0,9 C 7,0 C -0,9 C -1,2 C -1,7 C 0,0 C 80 % 83 % 0 % 1009,9 hPa 0,0 l/m 0,6 km/h (0 Bft) NO 45 0 min 0,0 UV-I -3,9 C -1,7 C 0,0 km/h (0 Bft)
28.03.2013 22:45 -1,0 C 7,0 C -0,9 C -1,2 C -1,5 C 0,0 C 80 % 83 % 0 % 1009,9 hPa 0,0 l/m 0,5 km/h (0 Bft) NO 45 0 min 0,0 UV-I -4,0 C -1,5 C 0,0 km/h (0 Bft)
28.03.2013 22:50 -0,9 C 7,1 C -0,9 C -1,1 C -1,4 C 0,0 C 80 % 83 % 0 % 1009,9 hPa 0,0 l/m 0,2 km/h (0 Bft) O-NO 67 0 min 0,0 UV-I -3,9 C -1,4 C 0,0 km/h (0 Bft)
28.03.2013 22:55 -0,9 C 7,0 C -0,9 C -1,0 C -1,3 C 0,0 C 80 % 83 % 0 % 1009,4 hPa 0,0 l/m 0,8 km/h (0 Bft) O-NO 67 0 min 0,0 UV-I -3,9 C -1,3 C 2,3 km/h (1 Bft)
28.03.2013 23:00 -0,9 C 7,0 C -0,8 C -1,0 C -1,3 C 0,0 C 80 % 83 % 0 % 1009,4 hPa 0,0 l/m 1,4 km/h (1 Bft) O-NO 67 0 min 0,0 UV-I -3,9 C -1,3 C 2,3 km/h (1 Bft)
28.03.2013 23:05 -0,9 C 7,0 C -0,8 C -1,0 C -1,2 C 0,0 C 80 % 83 % 0 % 1009,4 hPa 0,0 l/m 1,6 km/h (1 Bft) O-SO 112 0 min 0,0 UV-I -3,9 C -1,2 C 0,0 km/h (0 Bft)
28.03.2013 23:10 -0,7 C 7,0 C -0,7 C -0,8 C -1,1 C 0,0 C 80 % 83 % 0 % 1009,4 hPa 0,0 l/m 1,0 km/h (0 Bft) O 90 0 min 0,0 UV-I -3,7 C -1,1 C 0,0 km/h (0 Bft)
28.03.2013 23:15 -0,7 C 7,0 C -0,8 C -0,8 C -1,1 C 0,0 C 80 % 83 % 0 % 1009,4 hPa 0,0 l/m 0,0 km/h (0 Bft) O-SO 112 0 min 0,0 UV-I -3,7 C -1,1 C 0,0 km/h (0 Bft)
28.03.2013 23:20 -0,7 C 7,0 C -0,7 C -0,8 C -1,1 C 0,0 C 80 % 83 % 0 % 1009,4 hPa 0,0 l/m 0,0 km/h (0 Bft) O-SO 112 0 min 0,0 UV-I -3,7 C -1,1 C 0,0 km/h (0 Bft)
28.03.2013 23:25 -0,7 C 7,0 C -0,7 C -0,8 C -1,1 C 0,0 C 80 % 83 % 0 % 1009,4 hPa 0,0 l/m 0,0 km/h (0 Bft) NO 45 0 min 0,0 UV-I -3,7 C -1,1 C 0,0 km/h (0 Bft)
28.03.2013 23:30 -0,8 C 7,0 C -0,7 C -0,9 C -1,0 C 0,0 C 80 % 83 % 0 % 1009,4 hPa 0,0 l/m 0,0 km/h (0 Bft) O-NO 67 0 min 0,0 UV-I -3,8 C -1,0 C 0,0 km/h (0 Bft)
28.03.2013 23:35 -0,7 C 7,1 C -0,5 C -0,8 C -0,9 C 0,0 C 80 % 83 % 0 % 1009,4 hPa 0,0 l/m 0,0 km/h (0 Bft) O-NO 67 0 min 0,0 UV-I -3,7 C -0,9 C 0,0 km/h (0 Bft)
28.03.2013 23:40 -0,8 C 7,1 C -0,6 C -0,8 C -0,9 C 0,0 C 80 % 83 % 0 % 1009,4 hPa 0,0 l/m 0,0 km/h (0 Bft) O-NO 67 0 min 0,0 UV-I -3,8 C -0,9 C 0,0 km/h (0 Bft)
28.03.2013 23:45 -0,7 C 7,3 C -0,6 C -0,7 C -0,8 C 0,0 C 80 % 83 % 0 % 1009,4 hPa 0,0 l/m 0,0 km/h (0 Bft) N-NO 22 0 min 0,0 UV-I -3,7 C -0,8 C 0,0 km/h (0 Bft)
28.03.2013 23:50 -0,7 C 7,3 C -0,6 C -0,7 C -0,8 C 0,0 C 81 % 84 % 0 % 1009,4 hPa 0,0 l/m 0,0 km/h (0 Bft) N-NW 337 0 min 0,0 UV-I -3,5 C -0,8 C 0,0 km/h (0 Bft)
28.03.2013 23:55 -0,7 C 7,4 C -0,6 C -0,7 C -0,8 C 0,0 C 82 % 84 % 0 % 1009,1 hPa 0,0 l/m 0,0 km/h (0 Bft) N-NW 337 0 min 0,0 UV-I -3,4 C -0,8 C 0,0 km/h (0 Bft)
_ Min-Zeit 06:10 09:15 05:55 01:50 02:15 00:00 16:40 13:05 00:00 23:55 - 05:20 - - - 00:00 06:10 02:15 04:30
Minimum _ -3,1 C 6,9 C -3,1 C -3,6 C -5,7 C 0,0 C 72 % 73 % 0 % 1009,1 hPa - 0,0 km/h (0 Bft) - - - 0,0 UV-I -5,4 C -9,1 C 0,0 km/h (0 Bft)
_ Max-Zeit 16:10 00:00 11:15 15:10 15:00 09:15 00:00 00:00 09:15 00:00 00:00 15:05 - - 00:00 11:15 16:10 09:15 14:25
Maximum _ 1,7 C 7,4 C 2,7 C 3,6 C 2,9 C 2,1 C 86 % 87 % 55 % 1015,1 hPa 0,0 l/m 10,8 km/h
O-NO (2 Bft)
- - 0 min 1,0 UV-I -2,4 C 1,7 C 16,1 km/h
O-SO (3 Bft)
Durchschnitt _ -0,7 C 7,1 C -0,3 C -0,6 C -1,4 C 0,3 C 79 % 81 % 9 % 1012,5 hPa #0,0 l/m 4,6 km/h (1 Bft) O-NO - #0 min. 0,5 UV-I -3,9 C -2,6 C 5,5 km/h (1 Bft)
2013 www.wetterstation-wechselburg.de